sat.trackr.live / text

‹ back to catalog

STARLINK-3709

NORAD 52102 · 2022-029Q

PAYLOAD ACTIVE UNKNOWN

§ Identity

Operator
Country
US
Launch date
2022-03-19
Launch site
AFETR
Launch vehicle
Mass (kg)
RCS (m²)

Purposes: comms

External: N2YO · Heavens-Above · Gunter

§ Orbital elements

Epoch: 2026-05-25T02:31:26.402016Z

Period
95.44 min
Inclination
53.2155°
Eccentricity
0.0001368
Mean motion
15.08837364 rev/d
Perigee alt
538.8 km
Apogee alt
540.7 km
Semi-major
6,917.9 km
B*
5.8225e-5
RAAN
96.0783°
Arg perigee
81.5391°
Mean anomaly
278.5756°
Rev number
23,232

§ Raw data

STARLINK-37091 52102U 22029Q   26145.10516669  .00000639  00000+0  58225-4 0  99902 52102  53.2155  96.0783 0001368  81.5391 278.5756 15.08837364232328

JSON: /api/v1/satellites/52102 · /tle

For live sub-satellite position, see the globe view (requires WebGL).

§ Visibility from observer

Set your observer location to see the next 7 days of passes ≥ 10°. The values pass through the URL so the page stays shareable.

No JS? Fill the form by hand. The geolocation button needs JavaScript.